STARLINK M (59933 NORAD) Tracking and Keplerian Element Data

This shows tracking and keplerian element data for the satellite.

Feedback or suggestion? Click here.




ElementValue
Catalog59933
NameSTARLINK M
Epoch Orbit228
Epoch Day160.16667824
Epoch Year2024
RAAN22.4353
Inclination43.0024
Eccentricity0.0002047
Argument of Perigee279.3576
Mean Anonmoly161.7044
Mean Motion15.92862788
Decay Rate-0.0099768
L11 59933U 24106M 24160.16667824 -.00997680 30347-3 -27691-2 0 9993
L22 59933 43.0024 22.4353 0002047 279.3576 161.7044 15.92862788 2286



Live tracking and technical data element details for STARLINK M (NORAD 59933). STARLINK M can be tracked NOW for your location showing map with azimuth and elevation plus other details from your city location.







IsCatalogInMostPopularTable: catalog: 59933, numindb: 10
Update: records affected: 1



GetName: 59933 STARLINK M

Hit Count: updated at: Thu, 25 Jul 2024 00:21:47 GMT